Regional Weather Roundup
Issued by NWS

Home | Current Version | Previous Version | Text Only | Print | Product List | Glossary On
Versions: 1 2 3 4 5 6 7 8 9 10 11 12 13 14 15 16 17 18 19 20 21 22 23 24 25 26 27
000
ASUS42 KKEY 182210
RWRKEY

FLORIDA REGIONAL WEATHER ROUNDUP FOR THE FLORIDA KEYS
NATIONAL WEATHER SERVICE KEY WEST FLORIDA
500 PM EST WED JAN 18 2017

...SOUTH FLORIDA AND THE KEYS...

CITY           SKY/WX    TMP DP  RH WIND       PRES   REMARKS
FORT MYERS     SUNNY     78  61  55 W7        30.11S
SW REGIONAL AP SUNNY     77  60  55 SW8       30.11S
NAPLES         SUNNY     78  61  55 SW6       30.11S
MIAMI          PTSUNNY   80  60  50 SE7G17    30.11R
WEST KENDALL   MOSUNNY   78  61  55 SE8       30.10S
HOMESTEAD      MOSUNNY   78  63  58 SE6       30.10S
MARATHON       SUNNY     79  63  57 NE5       30.10F
BOCA CHICA NAS MOSUNNY   77  62  59 SE7       30.11S
KEY WEST INTL  SUNNY     78  65  63 SE7       30.11S

...INTERNATIONAL WEATHER...

CITY           SKY/WX    TMP DP  RH WIND       PRES   REMARKS
NASSAU BAHAMAS MOCLDY    75  63  64 CALM      30.11S
CANCUN MEXICO  MOSUNNY   81  70  69 SE12      30.03S
COZUMEL MEXICO MOSUNNY   82  72  69 SE6       30.01R

ADJACENT COASTAL WATERS...

STATION/POSITION TIME  SKY/WX   TEMP    WIND        PRES    WAVE
                                AIR SEA DIR/SP/G            HT/PER
                 (UTC)          (F)     (DEG/KT/KT) (MB)    (FT/S)
PULASKI SHOAL LI 2200            76     100/  9/ 10 1019.3S
SAND KEY         2150            76     110/  9/  9 1020.0S
LONG KEY         2200            75 74  350/  2/  2 1019.8F
MOLASSES REEF    2100            77 77  270/  3/  4 1020.1R
FOWEY ROCKS      2200            76 74  170/  7/  7 1020.3R

$$




USA.gov is the U.S. government's official web portal to all federal, state and local government web resources and services.